Location: Maccacari
(45.1333°N, 11.1333°E)
Time: 08:00:46
(UTC+00:00)

Iridium 4 Rocket - Pass Details

Date: 18 September 2020
Orbit: 584 x 905 km, 86.9° (Epoch: 29 October)

Event Time Altitude Azimuth Distance (km) Brightness Sun altitude
Rises 17:40:13 0° 170° (S) 3,039 6.4 -4.4°
Reaches altitude 10° 17:42:24 10° 167° (SSE) 2,174 5.7 -4.8°
Maximum altitude 17:47:11 61° 88° (E) 857 3.5 -5.6°
Drops below altitude 10° 17:52:27 10° 9° (N) 2,400 6.1 -6.5°
Sets 17:54:58 0° 6° (N) 3,383 6.9 -7.0°
